Location: Central Coast
(33.3208°S, 151.2336°E)
Time: 18:06:41
(UTC+10:00)

N. Korean satellite - Visible Passes

Search period start: 23 June 2018 00:00
Search period end: 03 July 2018 00:00
Orbit: 459 x 511 km, 97.2° (Epoch: 22 June)

Date Brightness Start Highest point End Pass type
(mag) Time Alt. Az. Time Alt. Az. Time Alt. Az.
23 Jun 6.5 05:53:06 10° N 05:56:43 67° WNW 06:00:21 10° SSW visible
23 Jun 8.5 17:25:55 10° ESE 17:27:25 12° E 17:28:56 10° ENE visible
23 Jun 8.5 18:59:28 20° SW 19:00:55 26° WSW 19:03:53 10° NW visible
24 Jun 7.4 05:29:08 10° NNE 05:32:40 52° ESE 05:36:12 10° S visible
24 Jun 6.9 18:35:04 25° S 18:36:55 60° WSW 18:40:21 10° NNW visible
25 Jun 8.9 05:05:43 10° NE 05:08:40 24° ESE 05:11:37 10° SSE visible
25 Jun 6.5 18:10:40 21° SSE 18:12:49 55° E 18:16:16 10° N visible
26 Jun 9.7 04:43:23 10° E 04:44:45 12° ESE 04:46:07 10° SE visible
26 Jun 7.4 06:14:38 10° NNW 06:17:53 31° W 06:21:09 10° SSW visible
26 Jun 7.7 17:46:15 13° SE 17:48:39 24° E 17:51:33 10° NNE visible
26 Jun 9.4 19:20:38 12° SW 19:21:53 14° WSW 19:23:48 10° WNW visible
27 Jun 6.5 05:50:09 10° N 05:53:45 74° WNW 05:57:21 10° SSW visible
27 Jun 8.6 17:23:12 10° ESE 17:24:25 11° E 17:25:37 10° ENE visible
27 Jun 8.4 18:56:13 19° SSW 18:57:56 29° WSW 19:01:00 10° NW visible
28 Jun 7.5 05:26:14 10° NNE 05:29:41 47° ESE 05:33:09 10° S visible
28 Jun 6.8 18:31:48 22° S 18:33:54 67° WSW 18:37:24 10° NNW visible
29 Jun 9.0 05:02:54 10° NE 05:05:42 22° ESE 05:08:30 10° SSE visible
29 Jun 6.7 18:07:22 18° SSE 18:09:48 50° E 18:13:14 10° N visible
30 Jun 9.8 04:40:56 10° E 04:41:47 11° ESE 04:42:37 10° SE visible
30 Jun 7.2 06:11:36 10° NNW 06:14:53 34° W 06:18:10 10° SSW visible
30 Jun 7.8 17:42:56 11° SE 17:45:38 22° E 17:48:28 10° NNE visible
30 Jun 9.4 19:17:19 12° SW 19:18:53 15° WSW 19:21:02 10° WNW visible
01 Jul 6.4 05:47:11 10° N 05:50:45 81° WNW 05:54:19 10° SSW visible
01 Jul 8.2 18:52:52 18° SSW 18:54:55 32° WSW 18:58:06 10° NW visible
02 Jul 7.7 05:23:18 10° NNE 05:26:41 42° ESE 05:30:03 10° S visible
02 Jul 6.6 18:28:26 19° S 18:30:52 75° WSW 18:34:25 10° NNW visible
